Time,TemperatureF,DewpointF,PressureIn,WindDirection,WindDirectionDegrees,WindSpeedMPH,WindSpeedGustMPH,Humidity,HourlyPrecipIn,Conditions,Clouds,dailyrainin,SoftwareType,DateUTC
2013-02-06 00:00:00,8.0,7.1,29.41,NW,315,2.0,5.0,96,0.00,,,0.00,Weather View 32 v70,2013-02-06 05:00:00,
2013-02-06 00:01:00,8.0,7.1,29.41,NNE,22,3.0,5.0,96,0.00,,,0.00,Weather View 32 v70,2013-02-06 05:01:00,
2013-02-06 00:06:00,8.0,7.1,29.41,NNW,337,2.0,6.0,96,0.00,,,0.00,Weather View 32 v70,2013-02-06 05:06:00,
2013-02-06 00:11:00,8.0,6.9,29.41,NNW,337,2.0,6.0,95,0.00,,,0.00,Weather View 32 v70,2013-02-06 05:11:00,
2013-02-06 00:16:00,7.0,5.6,29.41,North,360,2.0,6.0,94,0.00,,,0.00,Weather View 32 v70,2013-02-06 05:16:00,
2013-02-06 00:21:00,7.0,5.6,29.41,North,360,1.0,6.0,94,0.00,,,0.00,Weather View 32 v70,2013-02-06 05:21:00,
2013-02-06 00:26:00,7.0,5.6,29.41,North,360,1.0,6.0,94,0.00,,,0.00,Weather View 32 v70,2013-02-06 05:26:00,
2013-02-06 00:31:00,7.0,5.6,29.40,North,360,2.0,6.0,94,0.00,,,0.00,Weather View 32 v70,2013-02-06 05:31:00,
2013-02-06 00:36:00,7.0,5.9,29.40,North,360,4.0,6.0,95,0.00,,,0.00,Weather View 32 v70,2013-02-06 05:36:00,
2013-02-06 00:41:00,7.0,6.1,29.40,North,360,2.0,6.0,96,0.00,,,0.00,Weather View 32 v70,2013-02-06 05:41:00,
2013-02-06 00:46:00,7.0,6.1,29.39,NNW,337,2.0,6.0,96,0.00,,,0.00,Weather View 32 v70,2013-02-06 05:46:00,
2013-02-06 00:51:00,7.0,6.1,29.39,NNE,22,5.0,6.0,96,0.00,,,0.00,Weather View 32 v70,2013-02-06 05:51:00,
2013-02-06 00:56:00,7.0,6.1,29.39,North,360,0.0,6.0,96,0.00,,,0.00,Weather View 32 v70,2013-02-06 05:56:00,
2013-02-06 01:01:00,7.0,5.9,29.39,North,360,3.0,6.0,95,0.00,,,0.00,Weather View 32 v70,2013-02-06 06:01:00,
2013-02-06 01:06:00,7.0,5.9,29.39,NNW,337,2.0,6.0,95,0.00,,,0.00,Weather View 32 v70,2013-02-06 06:06:00,
2013-02-06 01:11:00,7.0,5.6,29.35,NW,315,5.0,6.0,94,0.00,,,0.00,Weather View 32 v70,2013-02-06 06:11:00,
2013-02-06 01:16:00,7.0,5.4,29.39,NNE,22,3.0,6.0,93,0.00,,,0.00,Weather View 32 v70,2013-02-06 06:16:00,
2013-02-06 01:21:00,7.0,5.2,29.39,NW,315,0.0,6.0,92,0.00,,,0.00,Weather View 32 v70,2013-02-06 06:21:00,
2013-02-06 01:26:00,7.0,4.9,29.39,NW,315,5.0,6.0,91,0.00,,,0.00,Weather View 32 v70,2013-02-06 06:26:00,
2013-02-06 01:31:00,8.0,5.4,29.40,NW,315,0.0,6.0,89,0.00,,,0.00,Weather View 32 v70,2013-02-06 06:31:00,
2013-02-06 01:36:00,8.0,5.2,29.39,ENE,67,1.0,6.0,88,0.00,,,0.00,Weather View 32 v70,2013-02-06 06:36:00,
2013-02-06 01:41:00,8.0,4.9,29.39,WNW,292,2.0,6.0,87,0.00,,,0.00,Weather View 32 v70,2013-02-06 06:41:00,
2013-02-06 01:46:00,8.0,4.9,29.40,NNE,22,1.0,6.0,87,0.00,,,0.00,Weather View 32 v70,2013-02-06 06:46:00,
2013-02-06 01:51:00,7.0,4.0,29.39,North,360,3.0,6.0,87,0.00,,,0.00,Weather View 32 v70,2013-02-06 06:51:00,
2013-02-06 01:56:00,7.0,4.0,29.39,North,360,1.0,6.0,87,0.00,,,0.00,Weather View 32 v70,2013-02-06 06:56:00,
2013-02-06 02:01:00,8.0,4.9,29.39,NNW,337,7.0,7.0,87,0.00,,,0.00,Weather View 32 v70,2013-02-06 07:01:00,
2013-02-06 02:06:00,8.0,4.9,29.39,NNW,337,4.0,7.0,87,0.00,,,0.00,Weather View 32 v70,2013-02-06 07:06:00,
2013-02-06 02:11:00,8.0,4.4,29.38,NW,315,1.0,7.0,85,0.00,,,0.00,Weather View 32 v70,2013-02-06 07:11:00,
2013-02-06 02:16:00,8.0,4.2,29.39,NNW,337,5.0,7.0,84,0.00,,,0.00,Weather View 32 v70,2013-02-06 07:16:00,
2013-02-06 02:21:00,8.0,3.9,29.39,NW,315,2.0,7.0,83,0.00,,,0.00,Weather View 32 v70,2013-02-06 07:21:00,
2013-02-06 02:26:00,8.0,4.2,29.40,NNE,22,3.0,7.0,84,0.00,,,0.00,Weather View 32 v70,2013-02-06 07:26:00,
2013-02-06 02:31:00,8.0,4.4,29.39,NNW,337,5.0,7.0,85,0.00,,,0.00,Weather View 32 v70,2013-02-06 07:31:00,
2013-02-06 02:36:00,9.0,5.2,29.39,NNW,337,6.0,7.0,84,0.00,,,0.00,Weather View 32 v70,2013-02-06 07:36:00,
2013-02-06 02:41:00,9.0,4.9,29.39,NNW,337,2.0,7.0,83,0.00,,,0.00,Weather View 32 v70,2013-02-06 07:41:00,
2013-02-06 02:46:00,9.0,4.9,29.39,NW,315,4.0,7.0,83,0.00,,,0.00,Weather View 32 v70,2013-02-06 07:46:00,
2013-02-06 02:51:00,9.0,4.9,29.39,North,360,1.0,7.0,83,0.00,,,0.00,Weather View 32 v70,2013-02-06 07:51:00,
2013-02-06 02:56:00,9.0,4.9,29.39,NNW,337,3.0,7.0,83,0.00,,,0.00,Weather View 32 v70,2013-02-06 07:56:00,
2013-02-06 03:01:00,9.0,4.1,29.39,NW,315,5.0,7.0,80,0.00,,,0.00,Weather View 32 v70,2013-02-06 08:01:00,
2013-02-06 03:06:00,9.0,4.1,29.35,NNW,337,3.0,7.0,80,0.00,,,0.00,Weather View 32 v70,2013-02-06 08:06:00,
2013-02-06 03:11:00,9.0,4.1,29.39,WNW,292,0.0,7.0,80,0.00,,,0.00,Weather View 32 v70,2013-02-06 08:11:00,
2013-02-06 03:16:00,9.0,4.1,29.39,North,360,1.0,7.0,80,0.00,,,0.00,Weather View 32 v70,2013-02-06 08:16:00,
2013-02-06 03:21:00,9.0,3.8,29.39,NW,315,2.0,7.0,79,0.00,,,0.00,Weather View 32 v70,2013-02-06 08:21:00,
2013-02-06 03:26:00,10.0,4.2,29.39,NNW,337,2.0,7.0,77,0.00,,,0.00,Weather View 32 v70,2013-02-06 08:26:00,
2013-02-06 03:31:00,10.0,4.2,29.39,NNW,337,2.0,7.0,77,0.00,,,0.00,Weather View 32 v70,2013-02-06 08:31:00,
2013-02-06 03:36:00,10.0,4.5,29.39,NNW,337,5.0,7.0,78,0.00,,,0.00,Weather View 32 v70,2013-02-06 08:36:00,
2013-02-06 03:41:00,10.0,4.2,29.39,NNW,337,0.0,7.0,77,0.00,,,0.00,Weather View 32 v70,2013-02-06 08:41:00,
2013-02-06 03:46:00,10.0,4.2,29.39,NW,315,1.0,7.0,77,0.00,,,0.00,Weather View 32 v70,2013-02-06 08:46:00,
2013-02-06 03:51:00,10.0,4.2,29.39,NW,315,0.0,7.0,77,0.00,,,0.00,Weather View 32 v70,2013-02-06 08:51:00,
2013-02-06 03:56:00,10.0,4.2,29.39,North,360,0.0,7.0,77,0.00,,,0.00,Weather View 32 v70,2013-02-06 08:56:00,
2013-02-06 04:01:00,10.0,3.4,29.39,NW,315,5.0,7.0,74,0.00,,,0.00,Weather View 32 v70,2013-02-06 09:01:00,
2013-02-06 04:06:00,10.0,3.7,29.39,West,270,1.0,7.0,75,0.00,,,0.00,Weather View 32 v70,2013-02-06 09:06:00,
2013-02-06 04:11:00,10.0,3.7,29.38,NW,315,0.0,7.0,75,0.00,,,0.00,Weather View 32 v70,2013-02-06 09:11:00,
2013-02-06 04:16:00,10.0,3.7,29.39,NNE,22,3.0,7.0,75,0.00,,,0.00,Weather View 32 v70,2013-02-06 09:16:00,
2013-02-06 04:21:00,10.0,4.0,29.39,North,360,1.0,7.0,76,0.00,,,0.00,Weather View 32 v70,2013-02-06 09:21:00,
2013-02-06 04:26:00,10.0,4.0,29.38,NW,315,2.0,7.0,76,0.00,,,0.00,Weather View 32 v70,2013-02-06 09:26:00,
2013-02-06 04:31:00,11.0,5.2,29.38,NNW,337,0.0,7.0,77,0.00,,,0.00,Weather View 32 v70,2013-02-06 09:31:00,
2013-02-06 04:36:00,11.0,4.9,29.38,NNW,337,2.0,7.0,76,0.00,,,0.00,Weather View 32 v70,2013-02-06 09:36:00,
2013-02-06 04:41:00,11.0,4.9,29.39,North,360,1.0,7.0,76,0.00,,,0.00,Weather View 32 v70,2013-02-06 09:41:00,
2013-02-06 04:46:00,11.0,4.6,29.39,NNW,337,4.0,7.0,75,0.00,,,0.00,Weather View 32 v70,2013-02-06 09:46:00,
2013-02-06 04:51:00,11.0,4.6,29.39,NNW,337,3.0,7.0,75,0.00,,,0.00,Weather View 32 v70,2013-02-06 09:51:00,
2013-02-06 04:56:00,11.0,4.6,29.39,WNW,292,3.0,7.0,75,0.00,,,0.00,Weather View 32 v70,2013-02-06 09:56:00,
2013-02-06 05:01:00,11.0,4.6,29.40,SSW,202,1.0,7.0,75,0.00,,,0.00,Weather View 32 v70,2013-02-06 10:01:00,
2013-02-06 05:06:00,11.0,4.9,29.39,SSW,202,1.0,7.0,76,0.00,,,0.00,Weather View 32 v70,2013-02-06 10:06:00,
2013-02-06 05:11:00,11.0,4.9,29.39,NNW,337,4.0,7.0,76,0.00,,,0.00,Weather View 32 v70,2013-02-06 10:11:00,
2013-02-06 05:16:00,11.0,4.6,29.36,NNW,337,5.0,7.0,75,0.00,,,0.00,Weather View 32 v70,2013-02-06 10:16:00,
2013-02-06 05:21:00,11.0,4.6,29.39,NNW,337,1.0,7.0,75,0.00,,,0.00,Weather View 32 v70,2013-02-06 10:21:00,
2013-02-06 05:26:00,11.0,4.6,29.36,NNW,337,1.0,7.0,75,0.00,,,0.00,Weather View 32 v70,2013-02-06 10:26:00,
2013-02-06 05:31:00,11.0,4.9,29.39,North,360,0.0,7.0,76,0.00,,,0.00,Weather View 32 v70,2013-02-06 10:31:00,
2013-02-06 05:36:00,11.0,4.9,29.39,NNW,337,1.0,7.0,76,0.00,,,0.00,Weather View 32 v70,2013-02-06 10:36:00,
2013-02-06 05:41:00,11.0,4.9,29.36,NW,315,6.0,9.0,76,0.00,,,0.00,Weather View 32 v70,2013-02-06 10:41:00,
2013-02-06 05:46:00,11.0,4.9,29.40,North,360,4.0,9.0,76,0.00,,,0.00,Weather View 32 v70,2013-02-06 10:46:00,
2013-02-06 05:51:00,11.0,4.9,29.36,NNE,22,4.0,9.0,76,0.00,,,0.00,Weather View 32 v70,2013-02-06 10:51:00,
2013-02-06 05:56:00,11.0,5.2,29.38,North,360,5.0,9.0,77,0.00,,,0.00,Weather View 32 v70,2013-02-06 10:56:00,
2013-02-06 06:01:00,11.0,4.9,29.39,NNE,22,0.0,9.0,76,0.00,,,0.00,Weather View 32 v70,2013-02-06 11:01:00,
2013-02-06 06:06:00,12.0,5.9,29.39,SSE,157,1.0,9.0,76,0.00,,,0.00,Weather View 32 v70,2013-02-06 11:06:00,
2013-02-06 06:11:00,12.0,6.2,29.40,NNE,22,0.0,9.0,77,0.00,,,0.00,Weather View 32 v70,2013-02-06 11:11:00,
2013-02-06 06:16:00,11.0,5.5,29.40,North,360,3.0,9.0,78,0.00,,,0.00,Weather View 32 v70,2013-02-06 11:16:00,
2013-02-06 06:21:00,11.0,5.8,29.39,NW,315,1.0,9.0,79,0.00,,,0.00,Weather View 32 v70,2013-02-06 11:21:00,
2013-02-06 06:26:00,11.0,5.5,29.39,North,360,2.0,9.0,78,0.00,,,0.00,Weather View 32 v70,2013-02-06 11:26:00,
2013-02-06 06:31:00,12.0,7.3,29.40,NNW,337,1.0,9.0,81,0.00,,,0.00,Weather View 32 v70,2013-02-06 11:31:00,
2013-02-06 06:36:00,12.0,6.7,29.40,NW,315,4.0,9.0,79,0.00,,,0.00,Weather View 32 v70,2013-02-06 11:36:00,
2013-02-06 06:41:00,12.0,6.5,29.40,ESE,112,1.0,7.0,78,0.00,,,0.00,Weather View 32 v70,2013-02-06 11:41:00,
2013-02-06 06:47:00,12.0,6.5,29.41,NNW,337,6.0,7.0,78,0.00,,,0.00,Weather View 32 v70,2013-02-06 11:47:00,
2013-02-06 06:52:00,12.0,5.9,29.41,NNE,22,1.0,7.0,76,0.00,,,0.00,Weather View 32 v70,2013-02-06 11:52:00,
2013-02-06 06:57:00,12.0,6.2,29.42,NE,45,4.0,7.0,77,0.00,,,0.00,Weather View 32 v70,2013-02-06 11:57:00,
2013-02-06 07:02:00,12.0,5.3,29.41,SSW,202,0.0,8.0,74,0.00,,,0.00,Weather View 32 v70,2013-02-06 12:02:00,
2013-02-06 07:07:00,12.0,5.3,29.42,NNE,22,5.0,8.0,74,0.00,,,0.00,Weather View 32 v70,2013-02-06 12:07:00,
2013-02-06 07:12:00,13.0,6.9,29.42,NE,45,0.0,8.0,76,0.00,,,0.00,Weather View 32 v70,2013-02-06 12:12:00,
2013-02-06 07:17:00,13.0,6.9,29.42,NNE,22,4.0,8.0,76,0.00,,,0.00,Weather View 32 v70,2013-02-06 12:17:00,
2013-02-06 07:22:00,13.0,6.3,29.40,West,270,0.0,8.0,74,0.00,,,0.00,Weather View 32 v70,2013-02-06 12:22:00,
2013-02-06 07:27:00,13.0,6.9,29.42,NE,45,1.0,8.0,76,0.00,,,0.00,Weather View 32 v70,2013-02-06 12:27:00,
2013-02-06 07:32:00,13.0,6.3,29.43,North,360,2.0,8.0,74,0.00,,,0.00,Weather View 32 v70,2013-02-06 12:32:00,
2013-02-06 07:37:00,13.0,6.6,29.43,NE,45,2.0,8.0,75,0.00,,,0.00,Weather View 32 v70,2013-02-06 12:37:00,
2013-02-06 07:42:00,13.0,6.3,29.43,NE,45,2.0,8.0,74,0.00,,,0.00,Weather View 32 v70,2013-02-06 12:42:00,
2013-02-06 07:47:00,14.0,7.5,29.43,NNE,22,1.0,8.0,75,0.00,,,0.00,Weather View 32 v70,2013-02-06 12:47:00,
2013-02-06 07:52:00,14.0,6.9,29.45,NNE,22,1.0,8.0,73,0.00,,,0.00,Weather View 32 v70,2013-02-06 12:52:00,
2013-02-06 07:57:00,14.0,6.9,29.45,NNW,337,0.0,8.0,73,0.00,,,0.00,Weather View 32 v70,2013-02-06 12:57:00,
2013-02-06 08:02:00,14.0,7.2,29.46,ESE,112,2.0,8.0,74,0.00,,,0.00,Weather View 32 v70,2013-02-06 13:02:00,
2013-02-06 08:07:00,15.0,8.2,29.46,NNW,337,3.0,8.0,74,0.00,,,0.00,Weather View 32 v70,2013-02-06 13:07:00,
2013-02-06 08:12:00,15.0,8.2,29.46,North,360,0.0,8.0,74,0.00,,,0.00,Weather View 32 v70,2013-02-06 13:12:00,
2013-02-06 08:17:00,15.0,8.8,29.46,NW,315,3.0,8.0,76,0.00,,,0.00,Weather View 32 v70,2013-02-06 13:17:00,
2013-02-06 08:22:00,16.0,9.5,29.43,North,360,0.0,7.0,75,0.00,,,0.00,Weather View 32 v70,2013-02-06 13:22:00,
2013-02-06 08:27:00,16.0,9.5,29.46,NW,315,4.0,7.0,75,0.00,,,0.00,Weather View 32 v70,2013-02-06 13:27:00,
2013-02-06 08:32:00,16.0,9.5,29.47,NW,315,0.0,7.0,75,0.00,,,0.00,Weather View 32 v70,2013-02-06 13:32:00,
2013-02-06 08:37:00,16.0,9.5,29.46,NW,315,1.0,7.0,75,0.00,,,0.00,Weather View 32 v70,2013-02-06 13:37:00,
2013-02-06 08:42:00,17.0,10.5,29.46,NNE,22,0.0,7.0,75,0.00,,,0.00,Weather View 32 v70,2013-02-06 13:42:00,
2013-02-06 08:47:00,17.0,10.7,29.46,NW,315,0.0,7.0,76,0.00,,,0.00,Weather View 32 v70,2013-02-06 13:47:00,
2013-02-06 08:52:00,16.0,10.4,29.47,NW,315,2.0,7.0,78,0.00,,,0.00,Weather View 32 v70,2013-02-06 13:52:00,
2013-02-06 08:57:00,17.0,11.6,29.46,NNW,337,0.0,7.0,79,0.00,,,0.00,Weather View 32 v70,2013-02-06 13:57:00,
2013-02-06 09:02:00,17.0,11.9,29.47,NW,315,0.0,7.0,80,0.00,,,0.00,Weather View 32 v70,2013-02-06 14:02:00,
2013-02-06 09:07:00,18.0,13.2,29.48,NNW,337,2.0,7.0,81,0.00,,,0.00,Weather View 32 v70,2013-02-06 14:07:00,
2013-02-06 09:12:00,17.0,12.7,29.48,NW,315,5.0,6.0,83,0.00,,,0.00,Weather View 32 v70,2013-02-06 14:12:00,
2013-02-06 09:17:00,17.0,13.3,29.48,NW,315,6.0,6.0,85,0.00,,,0.00,Weather View 32 v70,2013-02-06 14:17:00,
2013-02-06 09:22:00,17.0,14.3,29.48,NW,315,5.0,6.0,89,0.00,,,0.00,Weather View 32 v70,2013-02-06 14:22:00,
2013-02-06 09:27:00,18.0,15.3,29.48,NW,315,4.0,6.0,89,0.00,,,0.00,Weather View 32 v70,2013-02-06 14:27:00,
2013-02-06 09:32:00,18.0,15.8,29.48,NNW,337,4.0,6.0,91,0.00,,,0.00,Weather View 32 v70,2013-02-06 14:32:00,
2013-02-06 09:38:00,18.0,15.8,29.47,NW,315,4.0,6.0,91,0.00,,,0.00,Weather View 32 v70,2013-02-06 14:38:00,
2013-02-06 09:43:00,18.0,15.8,29.46,NW,315,5.0,6.0,91,0.00,,,0.00,Weather View 32 v70,2013-02-06 14:43:00,
2013-02-06 09:48:00,19.0,17.1,29.46,NW,315,2.0,6.0,92,0.00,,,0.00,Weather View 32 v70,2013-02-06 14:48:00,
2013-02-06 09:53:00,19.0,17.1,29.47,NW,315,4.0,7.0,92,0.00,,,0.00,Weather View 32 v70,2013-02-06 14:53:00,
2013-02-06 09:58:00,19.0,16.8,29.47,NW,315,3.0,7.0,91,0.00,,,0.00,Weather View 32 v70,2013-02-06 14:58:00,
2013-02-06 10:03:00,19.0,17.1,29.48,North,360,0.0,7.0,92,0.00,,,0.00,Weather View 32 v70,2013-02-06 15:03:00,
2013-02-06 10:08:00,19.0,17.1,29.48,NNW,337,4.0,8.0,92,0.00,,,0.00,Weather View 32 v70,2013-02-06 15:08:00,
2013-02-06 10:13:00,19.0,17.3,29.49,NNW,337,1.0,8.0,93,0.00,,,0.00,Weather View 32 v70,2013-02-06 15:13:00,
2013-02-06 10:18:00,19.0,17.6,29.48,NNW,337,4.0,8.0,94,0.00,,,0.00,Weather View 32 v70,2013-02-06 15:18:00,
2013-02-06 10:23:00,19.0,17.3,29.49,NW,315,6.0,8.0,93,0.00,,,0.00,Weather View 32 v70,2013-02-06 15:23:00,
2013-02-06 10:28:00,20.0,18.3,29.49,WNW,292,3.0,8.0,93,0.00,,,0.00,Weather View 32 v70,2013-02-06 15:28:00,
2013-02-06 10:33:00,19.0,17.8,29.49,WNW,292,5.0,9.0,95,0.00,,,0.00,Weather View 32 v70,2013-02-06 15:33:00,
2013-02-06 10:38:00,20.0,18.8,29.48,NNW,337,5.0,9.0,95,0.00,,,0.00,Weather View 32 v70,2013-02-06 15:38:00,
2013-02-06 10:43:00,20.0,18.8,29.50,NNW,337,2.0,9.0,95,0.00,,,0.00,Weather View 32 v70,2013-02-06 15:43:00,
2013-02-06 10:48:00,20.0,18.8,29.51,WNW,292,2.0,9.0,95,0.00,,,0.00,Weather View 32 v70,2013-02-06 15:48:00,
2013-02-06 10:53:00,21.0,19.8,29.50,NNW,337,1.0,9.0,95,0.00,,,0.00,Weather View 32 v70,2013-02-06 15:53:00,
2013-02-06 10:58:00,21.0,19.5,29.49,NE,45,1.0,9.0,94,0.00,,,0.00,Weather View 32 v70,2013-02-06 15:58:00,
2013-02-06 11:03:00,22.0,20.0,29.49,NNW,337,2.0,9.0,92,0.00,,,0.00,Weather View 32 v70,2013-02-06 16:03:00,
2013-02-06 11:08:00,23.0,20.5,29.48,ENE,67,3.0,9.0,90,0.00,,,0.00,Weather View 32 v70,2013-02-06 16:08:00,
2013-02-06 11:13:00,23.0,20.5,29.49,NW,315,3.0,9.0,90,0.00,,,0.00,Weather View 32 v70,2013-02-06 16:13:00,
2013-02-06 11:18:00,23.0,20.2,29.49,NE,45,2.0,9.0,89,0.00,,,0.00,Weather View 32 v70,2013-02-06 16:18:00,
2013-02-06 11:23:00,24.0,21.0,29.49,NNW,337,3.0,9.0,88,0.00,,,0.00,Weather View 32 v70,2013-02-06 16:23:00,
2013-02-06 11:28:00,24.0,20.7,29.49,NW,315,1.0,9.0,87,0.00,,,0.00,Weather View 32 v70,2013-02-06 16:28:00,
2013-02-06 11:33:00,25.0,21.7,29.50,WNW,292,1.0,7.0,87,0.01,,,0.01,Weather View 32 v70,2013-02-06 16:33:00,
2013-02-06 11:38:00,26.0,22.4,29.49,WNW,292,0.0,7.0,86,0.01,,,0.01,Weather View 32 v70,2013-02-06 16:38:00,
2013-02-06 11:43:00,27.0,22.5,29.49,West,270,0.0,7.0,83,0.01,,,0.01,Weather View 32 v70,2013-02-06 16:43:00,
2013-02-06 11:48:00,27.0,22.5,29.50,NW,315,0.0,7.0,83,0.01,,,0.01,Weather View 32 v70,2013-02-06 16:48:00,
2013-02-06 11:53:00,27.0,22.5,29.50,WNW,292,4.0,6.0,83,0.01,,,0.01,Weather View 32 v70,2013-02-06 16:53:00,
2013-02-06 11:58:00,28.0,23.5,29.50,WNW,292,1.0,6.0,83,0.01,,,0.01,Weather View 32 v70,2013-02-06 16:58:00,
2013-02-06 12:03:00,29.0,24.5,29.50,SW,225,1.0,6.0,83,0.01,,,0.01,Weather View 32 v70,2013-02-06 17:03:00,
2013-02-06 12:08:00,31.0,25.6,29.51,South,180,0.0,6.0,80,0.01,,,0.01,Weather View 32 v70,2013-02-06 17:08:00,
2013-02-06 12:13:00,32.0,26.2,29.52,West,270,1.0,6.0,79,0.01,,,0.01,Weather View 32 v70,2013-02-06 17:13:00,
2013-02-06 12:18:00,33.0,26.3,29.52,WNW,292,1.0,6.0,76,0.01,,,0.01,Weather View 32 v70,2013-02-06 17:18:00,
2013-02-06 12:23:00,34.0,26.9,29.52,SSW,202,6.0,6.0,75,0.01,,,0.01,Weather View 32 v70,2013-02-06 17:23:00,
2013-02-06 12:28:00,33.0,26.3,29.53,SSW,202,2.0,8.0,76,0.01,,,0.01,Weather View 32 v70,2013-02-06 17:28:00,
2013-02-06 12:33:00,33.0,26.6,29.53,SSE,157,5.0,9.0,77,0.00,,,0.01,Weather View 32 v70,2013-02-06 17:33:00,
2013-02-06 12:38:00,34.0,27.5,29.53,West,270,4.0,9.0,77,0.00,,,0.01,Weather View 32 v70,2013-02-06 17:38:00,
2013-02-06 12:43:00,33.0,25.3,29.53,SW,225,7.0,9.0,73,0.00,,,0.01,Weather View 32 v70,2013-02-06 17:43:00,
2013-02-06 12:48:00,33.0,25.6,29.53,North,360,2.0,11.0,74,0.00,,,0.01,Weather View 32 v70,2013-02-06 17:48:00,
2013-02-06 12:53:00,32.0,25.6,29.50,WSW,247,4.0,11.0,77,0.00,,,0.01,Weather View 32 v70,2013-02-06 17:53:00,
2013-02-06 12:58:00,32.0,25.3,29.51,SSE,157,1.0,11.0,76,0.00,,,0.01,Weather View 32 v70,2013-02-06 17:58:00,
2013-02-06 13:03:00,32.0,25.0,29.51,SSW,202,6.0,12.0,75,0.00,,,0.01,Weather View 32 v70,2013-02-06 18:03:00,
2013-02-06 13:08:00,32.0,25.0,29.51,WSW,247,7.0,12.0,75,0.00,,,0.01,Weather View 32 v70,2013-02-06 18:08:00,
2013-02-06 13:13:00,32.0,24.3,29.51,South,180,5.0,12.0,73,0.00,,,0.01,Weather View 32 v70,2013-02-06 18:13:00,
2013-02-06 13:18:00,33.0,24.3,29.51,West,270,6.0,14.0,70,0.00,,,0.01,Weather View 32 v70,2013-02-06 18:18:00,
2013-02-06 13:23:00,32.0,23.7,29.50,WNW,292,4.0,16.0,71,0.00,,,0.01,Weather View 32 v70,2013-02-06 18:23:00,
2013-02-06 13:28:00,32.0,24.0,29.50,NW,315,4.0,16.0,72,0.00,,,0.01,Weather View 32 v70,2013-02-06 18:28:00,
2013-02-06 13:33:00,32.0,23.7,29.50,NNE,22,2.0,16.0,71,0.00,,,0.01,Weather View 32 v70,2013-02-06 18:33:00,
2013-02-06 13:38:00,33.0,23.9,29.50,WNW,292,10.0,16.0,69,0.00,,,0.01,Weather View 32 v70,2013-02-06 18:38:00,
2013-02-06 13:43:00,32.0,23.3,29.50,West,270,2.0,16.0,70,0.00,,,0.01,Weather View 32 v70,2013-02-06 18:43:00,
2013-02-06 13:48:00,32.0,23.3,29.50,North,360,6.0,16.0,70,0.00,,,0.01,Weather View 32 v70,2013-02-06 18:48:00,
2013-02-06 13:53:00,33.0,23.2,29.50,NNE,22,6.0,16.0,67,0.00,,,0.01,Weather View 32 v70,2013-02-06 18:53:00,
2013-02-06 13:58:00,32.0,22.3,29.51,West,270,6.0,16.0,67,0.00,,,0.01,Weather View 32 v70,2013-02-06 18:58:00,
2013-02-06 14:03:00,32.0,22.3,29.50,West,270,7.0,16.0,67,0.00,,,0.01,Weather View 32 v70,2013-02-06 19:03:00,
2013-02-06 14:08:00,32.0,22.6,29.51,SE,135,6.0,16.0,68,0.00,,,0.01,Weather View 32 v70,2013-02-06 19:08:00,
2013-02-06 14:13:00,33.0,22.5,29.51,West,270,6.0,16.0,65,0.00,,,0.01,Weather View 32 v70,2013-02-06 19:13:00,
2013-02-06 14:18:00,33.0,22.1,29.51,East,90,3.0,16.0,64,0.00,,,0.01,Weather View 32 v70,2013-02-06 19:18:00,
2013-02-06 14:23:00,33.0,22.1,29.51,NW,315,6.0,15.0,64,0.00,,,0.01,Weather View 32 v70,2013-02-06 19:23:00,
2013-02-06 14:28:00,33.0,21.8,29.51,West,270,7.0,15.0,63,0.00,,,0.01,Weather View 32 v70,2013-02-06 19:28:00,
2013-02-06 14:33:00,33.0,22.1,29.52,NNW,337,1.0,15.0,64,0.00,,,0.01,Weather View 32 v70,2013-02-06 19:33:00,
2013-02-06 14:38:00,33.0,21.4,29.53,West,270,2.0,15.0,62,0.00,,,0.01,Weather View 32 v70,2013-02-06 19:38:00,
2013-02-06 14:43:00,34.0,22.0,29.53,WSW,247,4.0,15.0,61,0.00,,,0.01,Weather View 32 v70,2013-02-06 19:43:00,
2013-02-06 14:48:00,35.0,22.1,29.53,WNW,292,3.0,15.0,59,0.00,,,0.01,Weather View 32 v70,2013-02-06 19:48:00,
2013-02-06 14:53:00,35.0,21.7,29.54,NNE,22,1.0,15.0,58,0.00,,,0.01,Weather View 32 v70,2013-02-06 19:53:00,
2013-02-06 14:58:00,35.0,21.3,29.54,West,270,4.0,15.0,57,0.00,,,0.01,Weather View 32 v70,2013-02-06 19:58:00,
2013-02-06 15:03:00,34.0,20.8,29.54,WSW,247,3.0,15.0,58,0.00,,,0.01,Weather View 32 v70,2013-02-06 20:03:00,
2013-02-06 15:08:00,34.0,20.4,29.54,WNW,292,6.0,16.0,57,0.00,,,0.01,Weather View 32 v70,2013-02-06 20:08:00,
2013-02-06 15:13:00,34.0,20.4,29.54,NNW,337,9.0,16.0,57,0.00,,,0.01,Weather View 32 v70,2013-02-06 20:13:00,
2013-02-06 15:18:00,33.0,19.8,29.54,West,270,2.0,18.0,58,0.00,,,0.01,Weather View 32 v70,2013-02-06 20:18:00,
2013-02-06 15:23:00,33.0,19.8,29.53,WNW,292,5.0,18.0,58,0.00,,,0.01,Weather View 32 v70,2013-02-06 20:23:00,
2013-02-06 15:28:00,33.0,19.8,29.52,WSW,247,7.0,18.0,58,0.00,,,0.01,Weather View 32 v70,2013-02-06 20:28:00,
2013-02-06 15:33:00,33.0,19.0,29.52,SSW,202,3.0,18.0,56,0.00,,,0.01,Weather View 32 v70,2013-02-06 20:33:00,
2013-02-06 15:38:00,33.0,19.0,29.52,WNW,292,9.0,18.0,56,0.00,,,0.01,Weather View 32 v70,2013-02-06 20:38:00,
2013-02-06 15:43:00,33.0,18.2,29.52,WNW,292,8.0,18.0,54,0.00,,,0.01,Weather View 32 v70,2013-02-06 20:43:00,
2013-02-06 15:48:00,33.0,17.7,29.51,West,270,7.0,18.0,53,0.00,,,0.01,Weather View 32 v70,2013-02-06 20:48:00,
2013-02-06 15:53:00,33.0,15.9,29.52,NNW,337,11.0,18.0,49,0.00,,,0.01,Weather View 32 v70,2013-02-06 20:53:00,
2013-02-06 15:58:00,33.0,14.5,29.52,WNW,292,9.0,19.0,46,0.00,,,0.01,Weather View 32 v70,2013-02-06 20:58:00,
2013-02-06 16:03:00,33.0,14.0,29.52,WNW,292,7.0,19.0,45,0.00,,,0.01,Weather View 32 v70,2013-02-06 21:03:00,
2013-02-06 16:08:00,33.0,12.9,29.52,NW,315,12.0,20.0,43,0.00,,,0.01,Weather View 32 v70,2013-02-06 21:08:00,
2013-02-06 16:13:00,33.0,14.0,29.53,NW,315,9.0,20.0,45,0.00,,,0.01,Weather View 32 v70,2013-02-06 21:13:00,
2013-02-06 16:18:00,32.0,13.0,29.53,NW,315,12.0,20.0,45,0.00,,,0.01,Weather View 32 v70,2013-02-06 21:18:00,
2013-02-06 16:23:00,32.0,14.0,29.53,WNW,292,13.0,20.0,47,0.00,,,0.01,Weather View 32 v70,2013-02-06 21:23:00,
2013-02-06 16:28:00,32.0,14.0,29.53,WNW,292,10.0,20.0,47,0.00,,,0.01,Weather View 32 v70,2013-02-06 21:28:00,
2013-02-06 16:33:00,32.0,14.5,29.52,WSW,247,2.0,20.0,48,0.00,,,0.01,Weather View 32 v70,2013-02-06 21:33:00,
2013-02-06 16:38:00,32.0,15.0,29.52,NW,315,14.0,20.0,49,0.00,,,0.01,Weather View 32 v70,2013-02-06 21:38:00,
2013-02-06 16:43:00,31.0,14.5,29.52,NW,315,7.0,20.0,50,0.00,,,0.01,Weather View 32 v70,2013-02-06 21:43:00,
2013-02-06 16:48:00,31.0,14.1,29.52,West,270,9.0,20.0,49,0.00,,,0.01,Weather View 32 v70,2013-02-06 21:48:00,
2013-02-06 16:53:00,31.0,14.5,29.52,WNW,292,12.0,20.0,50,0.00,,,0.01,Weather View 32 v70,2013-02-06 21:53:00,
2013-02-06 16:58:00,31.0,15.0,29.52,West,270,5.0,20.0,51,0.00,,,0.01,Weather View 32 v70,2013-02-06 21:58:00,
2013-02-06 17:03:00,30.0,14.5,29.52,WNW,292,7.0,20.0,52,0.00,,,0.01,Weather View 32 v70,2013-02-06 22:03:00,
2013-02-06 17:08:00,30.0,14.5,29.50,NNW,337,3.0,20.0,52,0.00,,,0.01,Weather View 32 v70,2013-02-06 22:08:00,
2013-02-06 17:13:00,30.0,15.4,29.52,NNW,337,6.0,20.0,54,0.00,,,0.01,Weather View 32 v70,2013-02-06 22:13:00,
2013-02-06 17:18:00,30.0,17.0,29.53,NNW,337,6.0,20.0,58,0.00,,,0.01,Weather View 32 v70,2013-02-06 22:18:00,
2013-02-06 17:23:00,30.0,17.4,29.53,WNW,292,2.0,19.0,59,0.00,,,0.01,Weather View 32 v70,2013-02-06 22:23:00,
2013-02-06 17:28:00,30.0,17.4,29.53,WSW,247,1.0,15.0,59,0.00,,,0.01,Weather View 32 v70,2013-02-06 22:28:00,
2013-02-06 17:33:00,30.0,17.8,29.53,WNW,292,7.0,15.0,60,0.00,,,0.01,Weather View 32 v70,2013-02-06 22:33:00,
2013-02-06 17:38:00,30.0,17.8,29.54,NW,315,7.0,15.0,60,0.00,,,0.01,Weather View 32 v70,2013-02-06 22:38:00,
2013-02-06 17:43:00,30.0,17.8,29.54,WNW,292,9.0,15.0,60,0.00,,,0.01,Weather View 32 v70,2013-02-06 22:43:00,
2013-02-06 17:48:00,30.0,17.4,29.55,WNW,292,8.0,15.0,59,0.00,,,0.01,Weather View 32 v70,2013-02-06 22:48:00,
2013-02-06 17:53:00,30.0,17.0,29.55,NW,315,8.0,16.0,58,0.00,,,0.01,Weather View 32 v70,2013-02-06 22:53:00,
2013-02-06 17:58:00,30.0,17.0,29.56,NNW,337,9.0,16.0,58,0.00,,,0.01,Weather View 32 v70,2013-02-06 22:58:00,
2013-02-06 18:03:00,29.0,16.1,29.56,WNW,292,9.0,16.0,58,0.00,,,0.01,Weather View 32 v70,2013-02-06 23:03:00,
2013-02-06 18:08:00,29.0,15.7,29.56,NNW,337,10.0,16.0,57,0.00,,,0.01,Weather View 32 v70,2013-02-06 23:08:00,
2013-02-06 18:13:00,29.0,14.8,29.56,WNW,292,2.0,20.0,55,0.00,,,0.01,Weather View 32 v70,2013-02-06 23:13:00,
2013-02-06 18:18:00,29.0,12.2,29.57,West,270,12.0,20.0,49,0.00,,,0.01,Weather View 32 v70,2013-02-06 23:18:00,
2013-02-06 18:23:00,29.0,10.3,29.56,NNW,337,12.0,20.0,45,0.00,,,0.01,Weather View 32 v70,2013-02-06 23:23:00,
2013-02-06 18:28:00,28.0,8.9,29.58,WNW,292,9.0,20.0,44,0.00,,,0.01,Weather View 32 v70,2013-02-06 23:28:00,
2013-02-06 18:33:00,28.0,8.4,29.58,NW,315,9.0,20.0,43,0.00,,,0.01,Weather View 32 v70,2013-02-06 23:33:00,
2013-02-06 18:38:00,28.0,7.3,29.56,WSW,247,5.0,20.0,41,0.00,,,0.01,Weather View 32 v70,2013-02-06 23:38:00,
2013-02-06 18:43:00,28.0,7.9,29.57,NW,315,8.0,20.0,42,0.00,,,0.01,Weather View 32 v70,2013-02-06 23:43:00,
2013-02-06 18:48:00,27.0,5.9,29.57,WNW,292,17.0,20.0,40,0.00,,,0.01,Weather View 32 v70,2013-02-06 23:48:00,
2013-02-06 18:53:00,27.0,5.3,29.56,NW,315,13.0,20.0,39,0.00,,,0.01,Weather View 32 v70,2013-02-06 23:53:00,
2013-02-06 18:58:00,27.0,5.3,29.58,North,360,11.0,20.0,39,0.00,,,0.01,Weather View 32 v70,2013-02-06 23:58:00,
2013-02-06 19:03:00,27.0,5.9,29.57,ESE,112,2.0,20.0,40,0.00,,,0.01,Weather View 32 v70,2013-02-07 00:03:00,
2013-02-06 19:08:00,27.0,5.9,29.57,WNW,292,3.0,20.0,40,0.00,,,0.01,Weather View 32 v70,2013-02-07 00:08:00,
2013-02-06 19:13:00,26.0,5.0,29.58,NW,315,13.0,20.0,40,0.00,,,0.01,Weather View 32 v70,2013-02-07 00:13:00,
2013-02-06 19:18:00,26.0,5.0,29.59,NW,315,15.0,20.0,40,0.00,,,0.01,Weather View 32 v70,2013-02-07 00:18:00,
2013-02-06 19:23:00,26.0,5.0,29.60,NW,315,6.0,20.0,40,0.00,,,0.01,Weather View 32 v70,2013-02-07 00:23:00,
2013-02-06 19:28:00,25.0,5.1,29.59,WSW,247,7.0,20.0,42,0.00,,,0.01,Weather View 32 v70,2013-02-07 00:28:00,
2013-02-06 19:33:00,25.0,5.6,29.59,NNW,337,4.0,20.0,43,0.00,,,0.01,Weather View 32 v70,2013-02-07 00:33:00,
2013-02-06 19:38:00,25.0,5.1,29.59,WNW,292,1.0,20.0,42,0.00,,,0.01,Weather View 32 v70,2013-02-07 00:38:00,
2013-02-06 19:43:00,25.0,4.1,29.60,NW,315,8.0,20.0,40,0.00,,,0.01,Weather View 32 v70,2013-02-07 00:43:00,
2013-02-06 19:48:00,24.0,3.7,29.60,NNW,337,7.0,20.0,41,0.00,,,0.01,Weather View 32 v70,2013-02-07 00:48:00,
2013-02-06 19:53:00,24.0,4.2,29.60,ESE,112,1.0,19.0,42,0.00,,,0.01,Weather View 32 v70,2013-02-07 00:53:00,
2013-02-06 19:58:00,24.0,3.2,29.60,WNW,292,6.0,19.0,40,0.00,,,0.01,Weather View 32 v70,2013-02-07 00:58:00,
2013-02-06 20:03:00,24.0,3.7,29.60,NW,315,6.0,19.0,41,0.00,,,0.01,Weather View 32 v70,2013-02-07 01:03:00,
2013-02-06 20:08:00,24.0,3.7,29.60,NW,315,7.0,19.0,41,0.00,,,0.01,Weather View 32 v70,2013-02-07 01:08:00,
2013-02-06 20:13:00,23.0,2.3,29.60,NW,315,14.0,19.0,40,0.00,,,0.01,Weather View 32 v70,2013-02-07 01:13:00,
2013-02-06 20:18:00,23.0,0.6,29.61,WNW,292,13.0,19.0,37,0.00,,,0.01,Weather View 32 v70,2013-02-07 01:18:00,
2013-02-06 20:23:00,23.0,-0.6,29.61,WNW,292,7.0,21.0,35,0.00,,,0.01,Weather View 32 v70,2013-02-07 01:23:00,
2013-02-06 20:28:00,23.0,-0.6,29.61,NNW,337,10.0,21.0,35,0.00,,,0.01,Weather View 32 v70,2013-02-07 01:28:00,
2013-02-06 20:33:00,22.0,-1.5,29.61,NW,315,17.0,21.0,35,0.00,,,0.01,Weather View 32 v70,2013-02-07 01:33:00,
2013-02-06 20:38:00,22.0,-2.1,29.59,NW,315,13.0,22.0,34,0.00,,,0.01,Weather View 32 v70,2013-02-07 01:38:00,
2013-02-06 20:43:00,22.0,-1.5,29.61,SSW,202,2.0,22.0,35,0.00,,,0.01,Weather View 32 v70,2013-02-07 01:43:00,
2013-02-06 20:48:00,22.0,-1.5,29.61,NE,45,2.0,22.0,35,0.00,,,0.01,Weather View 32 v70,2013-02-07 01:48:00,
2013-02-06 20:53:00,22.0,-1.5,29.61,NW,315,10.0,22.0,35,0.00,,,0.01,Weather View 32 v70,2013-02-07 01:53:00,
2013-02-06 20:58:00,21.0,-1.2,29.61,WNW,292,6.0,22.0,37,0.00,,,0.01,Weather View 32 v70,2013-02-07 01:58:00,
2013-02-06 21:03:00,21.0,-1.2,29.62,WNW,292,7.0,22.0,37,0.00,,,0.01,Weather View 32 v70,2013-02-07 02:03:00,
2013-02-06 21:08:00,21.0,-0.6,29.63,NW,315,6.0,22.0,38,0.00,,,0.01,Weather View 32 v70,2013-02-07 02:08:00,
2013-02-06 21:13:00,21.0,-1.2,29.62,NNW,337,10.0,22.0,37,0.00,,,0.01,Weather View 32 v70,2013-02-07 02:13:00,
2013-02-06 21:18:00,21.0,-1.8,29.62,NNW,337,12.0,22.0,36,0.00,,,0.01,Weather View 32 v70,2013-02-07 02:18:00,
2013-02-06 21:23:00,21.0,-2.4,29.62,NW,315,15.0,22.0,35,0.00,,,0.01,Weather View 32 v70,2013-02-07 02:23:00,
2013-02-06 21:28:00,21.0,-2.4,29.63,West,270,9.0,22.0,35,0.01,,,0.02,Weather View 32 v70,2013-02-07 02:28:00,
2013-02-06 21:33:00,21.0,-2.4,29.63,NW,315,12.0,22.0,35,0.01,,,0.02,Weather View 32 v70,2013-02-07 02:33:00,
2013-02-06 21:38:00,20.0,-2.7,29.63,NNW,337,3.0,20.0,36,0.01,,,0.02,Weather View 32 v70,2013-02-07 02:38:00,
2013-02-06 21:43:00,20.0,-2.7,29.63,NNW,337,3.0,20.0,36,0.01,,,0.02,Weather View 32 v70,2013-02-07 02:43:00,
2013-02-06 21:48:00,20.0,-2.7,29.60,NNW,337,6.0,20.0,36,0.01,,,0.02,Weather View 32 v70,2013-02-07 02:48:00,
2013-02-06 21:53:00,20.0,-2.7,29.63,NW,315,12.0,20.0,36,0.01,,,0.02,Weather View 32 v70,2013-02-07 02:53:00,
2013-02-06 21:58:00,20.0,-2.7,29.64,WNW,292,5.0,20.0,36,0.01,,,0.02,Weather View 32 v70,2013-02-07 02:58:00,
2013-02-06 22:03:00,20.0,-2.1,29.61,NW,315,11.0,20.0,37,0.01,,,0.02,Weather View 32 v70,2013-02-07 03:03:00,
2013-02-06 22:08:00,19.0,-3.0,29.62,WNW,292,9.0,20.0,37,0.01,,,0.02,Weather View 32 v70,2013-02-07 03:08:00,
2013-02-06 22:13:00,19.0,-2.4,29.64,WNW,292,16.0,20.0,38,0.01,,,0.02,Weather View 32 v70,2013-02-07 03:13:00,
2013-02-06 22:18:00,19.0,-1.9,29.64,NNW,337,5.0,20.0,39,0.01,,,0.02,Weather View 32 v70,2013-02-07 03:18:00,
2013-02-06 22:23:00,19.0,-1.4,29.64,NW,315,5.0,20.0,40,0.01,,,0.02,Weather View 32 v70,2013-02-07 03:23:00,
2013-02-06 22:28:00,19.0,-0.8,29.61,NW,315,6.0,17.0,41,0.00,,,0.02,Weather View 32 v70,2013-02-07 03:28:00,
2013-02-06 22:33:00,19.0,0.2,29.64,WNW,292,7.0,17.0,43,0.00,,,0.02,Weather View 32 v70,2013-02-07 03:33:00,
2013-02-06 22:38:00,18.0,0.2,29.64,NW,315,15.0,17.0,45,0.00,,,0.02,Weather View 32 v70,2013-02-07 03:38:00,
2013-02-06 22:43:00,18.0,-0.2,29.64,NE,45,8.0,19.0,44,0.00,,,0.02,Weather View 32 v70,2013-02-07 03:43:00,
2013-02-06 22:48:00,18.0,0.2,29.66,WNW,292,6.0,19.0,45,0.00,,,0.02,Weather View 32 v70,2013-02-07 03:48:00,
2013-02-06 22:53:00,17.0,-1.2,29.65,North,360,10.0,23.0,44,0.00,,,0.02,Weather View 32 v70,2013-02-07 03:53:00,
2013-02-06 22:58:00,17.0,-1.2,29.66,NW,315,4.0,23.0,44,0.00,,,0.02,Weather View 32 v70,2013-02-07 03:58:00,
2013-02-06 23:03:00,17.0,-1.2,29.64,NNW,337,3.0,23.0,44,0.00,,,0.02,Weather View 32 v70,2013-02-07 04:03:00,
2013-02-06 23:08:00,17.0,-1.2,29.65,NW,315,12.0,23.0,44,0.00,,,0.02,Weather View 32 v70,2013-02-07 04:08:00,
2013-02-06 23:13:00,16.0,-2.1,29.64,North,360,10.0,23.0,44,0.00,,,0.02,Weather View 32 v70,2013-02-07 04:13:00,
2013-02-06 23:18:00,16.0,-2.6,29.64,WSW,247,5.0,23.0,43,0.00,,,0.02,Weather View 32 v70,2013-02-07 04:18:00,
2013-02-06 23:23:00,16.0,-2.6,29.63,NNE,22,2.0,23.0,43,0.00,,,0.02,Weather View 32 v70,2013-02-07 04:23:00,
2013-02-06 23:28:00,16.0,-2.1,29.67,NW,315,12.0,23.0,44,0.00,,,0.02,Weather View 32 v70,2013-02-07 04:28:00,
2013-02-06 23:33:00,16.0,-2.6,29.66,West,270,7.0,23.0,43,0.00,,,0.02,Weather View 32 v70,2013-02-07 04:33:00,
2013-02-06 23:38:00,15.0,-2.1,29.67,NNW,337,16.0,23.0,46,0.00,,,0.02,Weather View 32 v70,2013-02-07 04:38:00,
2013-02-06 23:43:00,15.0,-2.5,29.67,WNW,292,9.0,23.0,45,0.00,,,0.02,Weather View 32 v70,2013-02-07 04:43:00,
2013-02-06 23:48:00,15.0,-2.1,29.67,WSW,247,3.0,23.0,46,0.00,,,0.02,Weather View 32 v70,2013-02-07 04:48:00,
2013-02-06 23:53:00,15.0,-2.1,29.64,NW,315,10.0,22.0,46,0.00,,,0.02,Weather View 32 v70,2013-02-07 04:53:00,
2013-02-06 23:58:00,15.0,-2.1,29.67,NW,315,2.0,22.0,46,0.00,,,0.02,Weather View 32 v70,2013-02-07 04:58:00,